TimeEDT,TemperatureF,Dew PointF,Humidity,Sea Level PressureIn,VisibilityMPH,Wind Direction,Wind SpeedMPH,Gust SpeedMPH,PrecipitationIn,Events,Conditions,WindDirDegrees,DateUTC
12:53 AM,73.9,70.0,87,29.70,10.0,Calm,Calm,-,N/A,,Mostly Cloudy,0,2013-06-28 04:53:00
1:53 AM,73.0,69.1,87,29.70,10.0,Calm,Calm,-,N/A,,Partly Cloudy,0,2013-06-28 05:53:00
2:53 AM,73.0,69.1,87,29.68,10.0,Variable,4.6,-,N/A,,Clear,0,2013-06-28 06:53:00
3:53 AM,73.0,68.0,84,29.66,10.0,WSW,4.6,-,N/A,,Clear,250,2013-06-28 07:53:00
4:53 AM,72.0,68.0,87,29.66,10.0,WSW,4.6,-,N/A,,Clear,250,2013-06-28 08:53:00
5:53 AM,72.0,66.9,84,29.67,10.0,West,4.6,-,N/A,,Clear,280,2013-06-28 09:53:00
6:53 AM,72.0,66.0,81,29.67,10.0,West,4.6,-,N/A,,Clear,260,2013-06-28 10:53:00
7:53 AM,73.9,66.0,76,29.67,10.0,Variable,6.9,-,N/A,,Clear,0,2013-06-28 11:53:00
8:53 AM,75.9,66.0,71,29.67,10.0,WNW,8.1,-,N/A,,Clear,290,2013-06-28 12:53:00
9:53 AM,78.1,66.0,66,29.66,10.0,WNW,9.2,-,N/A,,Clear,290,2013-06-28 13:53:00
10:53 AM,80.1,66.0,62,29.66,10.0,West,8.1,18.4,N/A,,Clear,270,2013-06-28 14:53:00
11:53 AM,82.9,66.0,56,29.65,10.0,West,11.5,17.3,N/A,,Clear,270,2013-06-28 15:53:00
12:53 PM,84.9,63.0,48,29.65,10.0,WNW,19.6,25.3,N/A,,Partly Cloudy,300,2013-06-28 16:53:00
1:08 PM,84.2,62.6,48,29.66,10.0,West,13.8,25.3,N/A,,Partly Cloudy,280,2013-06-28 17:08:00
1:53 PM,84.9,61.0,44,29.63,10.0,WNW,15.0,21.9,N/A,,Partly Cloudy,290,2013-06-28 17:53:00
2:53 PM,86.0,61.0,43,29.62,10.0,WNW,18.4,23.0,N/A,,Partly Cloudy,300,2013-06-28 18:53:00
3:53 PM,86.0,61.0,43,29.61,10.0,WNW,12.7,20.7,N/A,,Partly Cloudy,290,2013-06-28 19:53:00
4:53 PM,86.0,59.0,40,29.60,10.0,WNW,12.7,21.9,N/A,,Clear,290,2013-06-28 20:53:00
5:13 PM,77.0,59.0,54,29.64,10.0,NNW,16.1,26.5,N/A,,Scattered Clouds,340,2013-06-28 21:13:00
5:41 PM,73.4,57.2,57,29.65,10.0,North,10.4,-,0.00,Thunderstorm,Clear,350,2013-06-28 21:41:00
5:53 PM,68.0,61.0,78,29.70,2.0,NW,21.9,33.4,0.08,Rain-Thunderstorm,Heavy Rain,320,2013-06-28 21:53:00
5:56 PM,66.2,62.6,88,29.70,1.5,NW,18.4,33.4,0.02,Rain-Thunderstorm,Heavy Rain,320,2013-06-28 21:56:00
6:01 PM,66.2,62.6,88,29.69,2.0,NNW,12.7,29.9,0.04,Rain-Thunderstorm,Heavy Thunderstorms and Rain,330,2013-06-28 22:01:00
6:11 PM,66.2,62.6,88,29.66,4.0,NE,10.4,-,0.05,Rain-Thunderstorm,Thunderstorms and Rain,40,2013-06-28 22:11:00
6:18 PM,66.2,62.6,88,29.66,8.0,NE,8.1,-,0.05,Rain,Light Rain,40,2013-06-28 22:18:00
6:53 PM,66.0,64.0,93,29.65,10.0,Calm,Calm,-,0.05,Rain,Light Rain,0,2013-06-28 22:53:00
7:53 PM,69.1,63.0,81,29.63,10.0,Calm,Calm,-,0.00,,Partly Cloudy,0,2013-06-28 23:53:00
8:53 PM,69.1,64.9,87,29.64,10.0,Calm,Calm,-,N/A,,Partly Cloudy,0,2013-06-29 00:53:00
9:53 PM,64.9,63.0,93,29.64,10.0,Calm,Calm,-,0.00,Rain,Light Rain,0,2013-06-29 01:53:00
10:53 PM,64.0,63.0,96,29.63,10.0,Calm,Calm,-,0.00,,Clear,0,2013-06-29 02:53:00
11:53 PM,66.0,63.0,90,29.64,7.0,West,4.6,-,0.02,Rain,Rain,280,2013-06-29 03:53:00